FW3118 Weather Reports


time (UTC)temp
C
wind
direction
speed
KPH
gust
KPH
rain 1hr
cm
rain 24hr
cm
rain mn
cm
humidity
%
barometer
mb
20260506231559 5 360 6.4 16.1 0.00 1.17 0.84 98 949.8
20260506224607 5 346 6.4 14.5 0.00 1.19 0.84 98 949.3
20260506223053 5 347 12.9 20.9 0.00 1.19 0.84 98 949.1
20260506221554 6 336 9.7 19.3 0.00 1.19 0.84 98 949.0
20260506214605 6 51 9.7 20.9 0.03 1.19 0.84 98 948.8
20260506213045 6 30 8.0 19.3 0.03 1.19 0.84 98 948.8
20260506211541 6 344 9.7 30.6 0.03 1.19 0.84 98 948.4
20260506204538 6 355 9.7 24.1 0.03 1.19 0.81 98 947.9
20260506203036 7 295 4.8 11.3 0.03 1.19 0.81 98 947.5
20260506201536 7 355 9.7 20.9 0.05 1.19 0.81 98 947.4
20260506194600 7 342 9.7 20.9 0.03 1.19 0.79 98 947.4
20260506193049 7 5 9.7 16.1 0.03 1.19 0.79 98 947.3
20260506191545 7 355 8.0 16.1 0.03 1.17 0.76 98 947.1
20260506184532 8 339 6.4 17.7 0.05 1.19 0.76 98 946.8
20260506183031 8 360 11.3 22.5 0.05 1.19 0.76 97 946.6
20260506181527 8 5 9.7 16.1 0.03 1.17 0.71 97 946.5
20260506174521 12 321 3.2 9.7 0.00 1.14 0.71 98 946.0
20260506173020 12 260 3.2 14.5 0.03 1.14 0.71 98 946.1
20260506171523 12 319 9.7 20.9 0.03 1.14 0.71 98 946.0
20260506164517 12 273 12.9 19.3 0.05 1.14 0.71 97 946.2
20260506163011 12 280 11.3 22.5 0.05 1.12 0.69 97 946.2
20260506161512 12 246 11.3 20.9 0.10 1.12 0.69 97 946.4
20260506154504 12 253 11.3 22.5 0.13 1.09 0.66 97 946.5
20260506153003 12 246 16.1 24.1 0.13 1.07 0.64 96 946.6
20260506151503 12 252 16.1 25.7 0.10 1.02 0.58 96 946.6
20260506144505 12 250 14.5 24.1 0.15 0.97 0.53 96 946.3
20260506143007 12 238 14.5 19.3 0.23 0.94 0.51 96 946.6
20260506141505 11 234 11.3 17.7 0.30 0.91 0.48 96 946.5
20260506134557 11 253 11.3 22.5 0.43 0.84 0.41 96 946.8
20260506133102 11 240 11.3 20.9 0.41 0.71 0.30 96 947.1
20260506131549 11 270 14.5 25.7 0.33 0.64 0.20 95 947.5
20260506124507 11 235 14.5 22.5 0.15 0.56 0.36 95 947.2
20260506123007 11 263 11.3 20.9 0.08 0.48 0.28 95 947.1
20260506121507 11 252 9.7 16.1 0.08 0.46 0.25 95 947.0
20260506114556 11 250 6.4 11.3 0.08 0.43 0.23 94 947.3
20260506113052 11 270 9.7 16.1 0.10 0.41 0.20 93 947.3
20260506111551 11 227 9.7 16.1 0.13 0.41 0.20 94 947.4
20260506104547 11 250 6.4 12.9 0.10 0.36 0.15 94 947.6
20260506103042 11 241 3.2 9.7 0.08 0.33 0.13 93 947.4
20260506101548 11 263 8.0 16.1 0.03 0.28 0.08 93 947.3
20260506094540 11 261 6.4 12.9 0.00 0.25 0.05 94 947.0
20260506093039 11 244 6.4 12.9 0.00 0.25 0.05 95 947.0
20260506091539 11 258 6.4 11.3 0.00 0.25 0.05 96 947.2
20260506084541 10 286 1.6 4.8 0.00 0.25 0.05 95 947.5
20260506083037 10 157 0.0 1.6 0.00 0.25 0.05 95 947.4
20260506081536 10 155 0.0 1.6 0.00 0.25 0.05 95 947.3
20260506073038 10 149 0.0 8.0 0.00 0.25 0.05 94 947.4
20260506071537 10 142 0.0 4.8 0.00 0.25 0.05 94 947.5
20260506061533 10 166 4.8 8.0 0.00 0.25 0.05 92 948.0
20260506044532 10 161 1.6 12.9 0.00 0.25 0.05 93 949.2
20260506043035 10 156 3.2 9.7 0.00 0.25 0.05 93 949.1
20260506041530 10 161 0.0 3.2 0.00 0.25 0.05 92 949.4
20260506034528 10 107 4.8 14.5 0.00 0.25 0.05 91 949.8
20260506033023 11 109 8.0 17.7 0.00 0.25 0.05 92 949.6
20260506031520 11 94 3.2 11.3 0.00 0.25 0.05 93 949.6
20260506024517 12 109 4.8 17.7 0.00 0.25 0.05 93 949.6
20260506023020 12 61 8.0 17.7 0.00 0.25 0.05 93 949.6
20260506021523 13 94 1.6 14.5 0.00 0.25 0.05 93 949.3
20260506014507 13 17 1.6 6.4 0.00 0.25 0.05 92 949.3
20260506013005 14 44 1.6 6.4 0.00 0.25 0.05 91 949.1
20260506011502 15 5 4.8 14.5 0.00 0.25 0.05 88 949.0
20260506004606 15 276 0.0 0.0 0.00 0.25 0.05 89 948.5
20260506003100 15 289 0.0 0.0 0.00 0.25 0.05 90 948.3
20260506001559 15 289 0.0 0.0 0.00 0.25 0.05 90 948.2
20260505234608 14 289 1.6 6.4 0.00 0.25 0.05 90 947.9
20260505233057 15 302 1.6 6.4 0.03 0.25 0.05 90 948.0